OBJECT AB, 61760

Orbit data source: Space-Track

You're viewing an Uncataloged Satellite

Recently launched and/or uncataloged satellites may have evolving metadata. Metadata may include but not limited to: Owner, Maufacturer, Bus, Motor, and Mission.

OBJECT AB, 61760 is a satellite in SSO that was launched on Mon, 04 Nov 2024 UTC via a SOYUZ-2-1B launch vehicle from the Vostochny Cosmodrome (VOSTO). Unknown objects in Earth's orbit typically refer to objects detected orbiting the Earth but have not yet been identified or cataloged. These objects could be anything from previously untracked satellites, spent rocket stages, debris from satellite collisions, or even natural meteoroids temporarily captured by Earth's gravity.

Loading next visibility...
Identifier
61760, 2024-199AB
Orbit
SSO
Country
Flag of TBDTBD
Related business
Manufacturer
Sputniks
Mission
Operational Commercial Communications
Bus & Motor
CUBESAT 3U?, Unknown motor
Mass
3 kg wet, 3 kg dry
Launch date (UTC)
2024-11-04 (2 years ago)
Launch vehicle
SOYUZ-2-1B
Launch site
Vostochny Cosmodrome (VOSTO)
Object type
Unknown
Shape & HBR
Box, 0.1 m
Radar Cross Section
0.035 m², Small (<0.1 m²)

Expand to show TLE details & history
Last TLE update: 7 hours ago

TLE from 7 hours ago
0 OBJECT AB
1 61760U 24199AB  26130.14953105  .00044227  00000-0  49853-3 0  9996
2 61760  97.2991   7.8590 0006206  69.3395 290.8528 15.62393566131822
Epoch: 2026-05-10T03:35Z
TLE epoch observation values (Epoch: 2026-05-10T03:35:19.482Z)
Latitude
-0.00006°
Longitude
86.07108°
Altitude
382.405 km
Speed
7.681 km/s
True Right ascension
00h 31m 26s
True Declination
0° 00' 00"
Sunlit
Object was in daylight at epoch
Visualization orbit readout
Latitude
Unknown
Longitude
Unknown
Altitude
Unknown
Speed
Unknown
Apparent Right ascension
Unknown
Apparent Declination
Unknown
Sunlit
N/A
Visualization observer readout
Local Sidereal Time
19:11:31
Azimuth
Unknown
Elevation
Unknown
Doppler factor
Unknown
Orbital elements
Apogee altitude
381.843 km
Perigee altitude
373.458 km
Semi-major axis
6,755.787 km
Eccentricity
0.00062
Inclination
97.2991°
RAAN
7.859°
Arg. of periapsis
69.3395°
True anomaly
290.78632°
Mean anomaly
290.8528°
Eccentric anomaly
290.81956°
Mean motion
3.90867 °/min
Orbital period
92.1 mins
BSTAR
0.00049853
Loading maneuver chart data...
Computing Atmospheric mass density...
Loading historical data...
Loading historical data...
Loading historical data...
Loading historical data...
Loading historical data...
Loading historical data...
Loading historical data...

Documentation

Showing up to 5 results
|